Showing default

HAWK-2A, 47505

Orbit data source: Space-Track

HAWK-2A, 47505 is a payload satellite owned by HawkEye 360 (US) in SSO that was launched on Sun, 24 Jan 2021 UTC via an FALCON 9 launch vehicle from the Air Force Eastern Test Range (AFETR). Payload-class satellites include a variety of spacecraft equipped with specific instruments for various scientific and technological missions. These include communications satellites like Starlink; space stations such as the ISS; scientific satellites like the Hubble; Earth observation satellites from companies like Planet Labs, Umbra, and HawkEye 360; GPS; miniature CubeSats for education and research; and military/defense satellites.

Loading next visibility...
Identifier
47505, 2021-006CW
Orbit
SSO
Country
Flag of USUS
Related business
Manufacturer
UTIAS-SFL
Mission
Operational Commercial Sigint
Bus & Motor
DEFIANT, Unknown motor
Mass
31 kg wet, 30 kg dry
Launch date (UTC)
2021-01-24 (5 years ago)
Launch vehicle
FALCON 9
Launch site
Air Force Eastern Test Range (AFETR)
Object type
Payload
Rocket body
Debris
Shape & HBR
Box + 2 Pan, 1.0 m
Radar Cross Section
0.348 m², Medium (>0.1 m² and < 1m²)

Expand to show TLE details & history
Last TLE update: 9 hours ago

TLE from 9 hours ago
0 HAWK-2A
1 47505U 21006CW  25309.12890907  .00007210  00000-0  24507-3 0  9996
2 47505  97.2664 353.5797 0005384 292.4169  67.6501 15.30746185265175
Epoch: 2025-11-05T03:05Z
TLE epoch observation values (Epoch: 2025-11-05T03:05:37.743Z)
Latitude
-0.00011°
Longitude
-97.43357°
Altitude
475.292 km
Speed
7.629 km/s
True Right ascension
23h 34m 19s
True Declination
0° 00' 00"
Sunlit
Object was in full shadow at epoch
Visualization orbit readout
Latitude
Unknown
Longitude
Unknown
Altitude
Unknown
Speed
Unknown
Apparent Right ascension
Unknown
Apparent Declination
Unknown
Sunlit
N/A
Visualization observer readout
Local Sidereal Time
07:51:52
Azimuth
Unknown
Elevation
Unknown
Doppler factor
Unknown
Orbital elements
Apogee altitude
474.218 km
Perigee altitude
466.843 km
Semi-major axis
6,848.667 km
Eccentricity
0.00054
Inclination
97.2664°
RAAN
353.5797°
Arg. of periapsis
292.4169°
True anomaly
67.70718°
Mean anomaly
67.6501°
Eccentric anomaly
67.67864°
Mean motion
3.82943 °/min
Orbital period
94.01 mins
BSTAR
0.00024507
Loading maneuver chart data...
Computing Atmospheric mass density...

Documentation

Showing up to 5 results
|